Change the Weather History Date:

Monday, September 23, 2013

  Actual Average Record
Temperature  
Mean Temperature 42 °F -  
Max Temperature 46 °F 49 °F 55 °F (1997)
Min Temperature 39 °F 39 °F 30 °F (2014)
Degree Days  
Heating Degree Days 22    
Moisture  
Dew Point 30 °F    
Average Humidity 61    
Maximum Humidity 75    
Minimum Humidity 38    
Precipitation  
Precipitation 0.01 in - - ()
Sea Level Pressure  
Sea Level Pressure 29.84 in    
Wind  
Wind Speed 13 mph (NW)    
Max Wind Speed 24 mph    
Max Gust Speed 28 mph    
Visibility 10 miles    
Events      
Averages and records for this station are not official NWS values.
T = Trace of Precipitation, MM = Missing Value Source: NWS Daily Summary

Daily Weather History Graph

Daily Weather History Graph

Search for Another Location

Airport or City:

Trip Planner

Search our weather history database for the weather conditions in past years. The results will help you decide how hot, cold, wet, or windy it might be!

Date:

Astronomy

Sep. 23, 2013 Rise Set
Actual Time 8:22 AM AKDT 8:29 PM AKDT
Civil Twilight 7:44 AM AKDT 9:07 PM AKDT
Nautical Twilight 6:59 AM AKDT 9:52 PM AKDT
Astronomical Twilight 6:10 AM AKDT 10:40 PM AKDT
Moon 10:11 PM AKDT (9/23) 1:50 PM AKDT (9/23)
Length of Visible Light 13h 22m
Length of Day
12h 06m
Waning Gibbous, 80% of the Moon is Illuminated
Sep 23
Waning Gibbous
Sep 26
Last Quarter
Oct 4
New
Oct 11
First Quarter
Oct 18
Full

Hourly Weather History & Observations

Time (AKDT) Temp. Windchill Dew Point Humidity Pressure Visibility Wind Dir Wind Speed Gust Speed Precip Events Conditions
12:16 AM 42.8 °F 34.8 °F 30.2 °F 61% 29.76 in 10.0 mi WNW 17.3 mph - N/A   Mostly Cloudy
12:36 AM 42.8 °F 34.5 °F 28.4 °F 57% 29.77 in 10.0 mi NW 18.4 mph 24.2 mph N/A   Mostly Cloudy
12:56 AM 42.8 °F 34.8 °F 30.2 °F 61% 29.77 in 10.0 mi NW 17.3 mph - N/A   Mostly Cloudy
1:16 AM 42.8 °F 33.5 °F 32.0 °F 66% 29.77 in 10.0 mi WNW 23.0 mph 27.6 mph N/A   Overcast
1:36 AM 42.8 °F 35.8 °F 30.2 °F 61% 29.77 in 10.0 mi NW 13.8 mph - N/A   Overcast
1:56 AM 41.0 °F 32.2 °F 32.0 °F 70% 29.78 in 10.0 mi West 18.4 mph 24.2 mph N/A   Overcast
2:16 AM 41.0 °F 34.3 °F 32.0 °F 70% 29.78 in 10.0 mi NW 11.5 mph 17.3 mph N/A   Overcast
2:36 AM 41.0 °F 33.1 °F 32.0 °F 70% 29.79 in 10.0 mi NW 15.0 mph 21.9 mph N/A   Mostly Cloudy
2:56 AM 41.0 °F 31.9 °F 30.2 °F 65% 29.80 in 10.0 mi NW 19.6 mph 24.2 mph N/A   Mostly Cloudy
3:16 AM 41.0 °F 32.5 °F 30.2 °F 65% 29.80 in 10.0 mi WNW 17.3 mph 20.7 mph N/A   Mostly Cloudy
3:36 AM 41.0 °F 31.9 °F 28.4 °F 61% 29.81 in 10.0 mi WNW 19.6 mph - N/A   Mostly Cloudy
3:56 AM 41.0 °F 32.2 °F 30.2 °F 65% 29.81 in 10.0 mi NW 18.4 mph - N/A   Mostly Cloudy
4:16 AM 41.0 °F 31.1 °F 30.2 °F 65% 29.81 in 10.0 mi NNW 23.0 mph 27.6 mph N/A   Mostly Cloudy
4:36 AM 41.0 °F 32.5 °F 30.2 °F 65% 29.81 in 10.0 mi WNW 17.3 mph - N/A   Overcast
4:56 AM 41.0 °F 30.9 °F 30.2 °F 65% 29.82 in 10.0 mi NW 24.2 mph 27.6 mph N/A   Overcast
5:16 AM 39.2 °F 30.5 °F 30.2 °F 70% 29.82 in 10.0 mi WNW 16.1 mph 20.7 mph N/A   Mostly Cloudy
5:36 AM 39.2 °F 29.8 °F 32.0 °F 75% 29.83 in 9.0 mi WNW 18.4 mph 23.0 mph N/A   Overcast
5:56 AM 41.0 °F 33.9 °F 30.2 °F 65% 29.83 in 10.0 mi NW 12.7 mph - N/A   Overcast
6:16 AM 41.0 °F 32.8 °F 30.2 °F 65% 29.83 in 10.0 mi NW 16.1 mph - N/A   Overcast
6:36 AM 41.0 °F 33.1 °F 30.2 °F 65% 29.83 in 10.0 mi NW 15.0 mph - N/A   Overcast
6:56 AM 41.0 °F 33.9 °F 30.2 °F 65% 29.84 in 10.0 mi WNW 12.7 mph - N/A   Overcast
7:16 AM 42.8 °F 35.4 °F 30.2 °F 61% 29.85 in 10.0 mi NW 15.0 mph - N/A   Overcast
7:36 AM 39.2 °F 32.5 °F 30.2 °F 70% 29.84 in 10.0 mi North 10.4 mph - N/A   Mostly Cloudy
7:56 AM 39.2 °F 32.0 °F 30.2 °F 70% 29.84 in 10.0 mi NNW 11.5 mph - N/A   Overcast
8:16 AM 39.2 °F 32.5 °F 32.0 °F 75% 29.84 in 10.0 mi NW 10.4 mph - N/A   Overcast
8:36 AM 41.0 °F 34.7 °F 28.4 °F 61% 29.85 in 10.0 mi NW 10.4 mph - N/A   Overcast
8:56 AM 39.2 °F 32.5 °F 30.2 °F 70% 29.85 in 10.0 mi NW 10.4 mph - N/A   Mostly Cloudy
9:16 AM 39.2 °F 32.5 °F 28.4 °F 65% 29.85 in 10.0 mi NW 10.4 mph - N/A   Scattered Clouds
9:36 AM 42.8 °F 37.5 °F 30.2 °F 61% 29.85 in 10.0 mi NW 9.2 mph - N/A   Scattered Clouds
9:56 AM 42.8 °F 37.0 °F 30.2 °F 61% 29.86 in 10.0 mi NW 10.4 mph - N/A   Overcast
10:16 AM 42.8 °F 37.5 °F 30.2 °F 61% 29.86 in 10.0 mi NW 9.2 mph - N/A   Mostly Cloudy
10:36 AM 42.8 °F 38.6 °F 30.2 °F 61% 29.86 in 10.0 mi WNW 6.9 mph - N/A   Partly Cloudy
10:56 AM 44.6 °F 39.7 °F 30.2 °F 57% 29.86 in 10.0 mi WNW 9.2 mph - N/A   Partly Cloudy
11:16 AM 44.6 °F 38.8 °F 32.0 °F 61% 29.86 in 10.0 mi NW 11.5 mph - N/A   Mostly Cloudy
11:36 AM 44.6 °F 39.7 °F 30.2 °F 57% 29.86 in 10.0 mi WNW 9.2 mph - N/A   Scattered Clouds
11:56 AM 44.6 °F 40.2 °F 30.2 °F 57% 29.87 in 10.0 mi West 8.1 mph - N/A   Clear
12:16 PM 44.6 °F 40.7 °F 30.2 °F 57% 29.87 in 10.0 mi WNW 6.9 mph - N/A   Clear
12:36 PM 44.6 °F 41.4 °F 30.2 °F 57% 29.87 in 10.0 mi West 5.8 mph - N/A   Clear
12:56 PM 46.4 °F 42.4 °F 30.2 °F 53% 29.87 in 10.0 mi West 8.1 mph - N/A   Clear
1:16 PM 46.4 °F 41.9 °F 30.2 °F 53% 29.87 in 10.0 mi West 9.2 mph - N/A   Clear
1:36 PM 46.4 °F 42.9 °F 30.2 °F 53% 29.88 in 10.0 mi WSW 6.9 mph - N/A   Clear
1:56 PM 46.4 °F 42.4 °F 30.2 °F 53% 29.88 in 10.0 mi WSW 8.1 mph - N/A   Mostly Cloudy
2:16 PM 44.6 °F 40.2 °F 30.2 °F 57% 29.88 in 10.0 mi West 8.1 mph - N/A   Overcast
2:36 PM 46.4 °F 41.9 °F 28.4 °F 50% 29.88 in 10.0 mi West 9.2 mph - N/A   Mostly Cloudy
2:56 PM 46.4 °F 44.3 °F 30.2 °F 53% 29.88 in 10.0 mi West 4.6 mph - N/A   Scattered Clouds
3:16 PM 46.4 °F 43.5 °F 28.4 °F 50% 29.88 in 10.0 mi WSW 5.8 mph - N/A   Partly Cloudy
3:36 PM 46.4 °F 43.5 °F 28.4 °F 50% 29.88 in 10.0 mi NW 5.8 mph - N/A   Clear
3:56 PM 46.4 °F - 28.4 °F 50% 29.87 in 10.0 mi Calm Calm - N/A   Clear
4:16 PM 46.4 °F 44.3 °F 30.2 °F 53% 29.88 in 10.0 mi WNW 4.6 mph - N/A   Clear
4:36 PM 46.4 °F - 28.4 °F 50% 29.87 in 10.0 mi Calm Calm - N/A   Clear
4:56 PM 46.4 °F 45.2 °F 28.4 °F 50% 29.87 in 10.0 mi WSW 3.5 mph - N/A   Clear
5:16 PM 46.4 °F 45.2 °F 28.4 °F 50% 29.86 in 10.0 mi NW 3.5 mph - N/A   Clear
5:36 PM 46.4 °F - 28.4 °F 50% 29.86 in 10.0 mi Calm Calm - N/A   Clear
5:56 PM 46.4 °F - 28.4 °F 50% 29.86 in 10.0 mi Calm Calm - N/A   Clear
6:16 PM 46.4 °F 44.3 °F 26.6 °F 46% 29.86 in 10.0 mi ENE 4.6 mph - N/A   Clear
6:36 PM 46.4 °F 43.5 °F 28.4 °F 50% 29.86 in 10.0 mi North 5.8 mph - N/A   Clear
6:56 PM 46.4 °F 42.9 °F 30.2 °F 53% 29.86 in 10.0 mi North 6.9 mph - N/A   Clear
7:16 PM 44.6 °F 41.4 °F 30.2 °F 57% 29.86 in 10.0 mi North 5.8 mph - N/A   Clear
7:36 PM 42.8 °F 38.6 °F 30.2 °F 61% 29.85 in 10.0 mi North 6.9 mph - N/A   Clear
7:56 PM 42.8 °F 38.0 °F 30.2 °F 61% 29.85 in 10.0 mi NNE 8.1 mph - N/A   Clear
8:16 PM 41.0 °F 35.2 °F 30.2 °F 65% 29.85 in 10.0 mi NNE 9.2 mph - N/A   Mostly Cloudy
8:36 PM 39.2 °F 33.6 °F 30.2 °F 70% 29.84 in 10.0 mi NE 8.1 mph - N/A   Overcast
8:56 PM 41.0 °F 35.2 °F 30.2 °F 65% 29.85 in 10.0 mi NE 9.2 mph - N/A   Overcast
9:16 PM 41.0 °F 34.7 °F 30.2 °F 65% 29.84 in 10.0 mi NE 10.4 mph - N/A   Overcast
9:36 PM 39.2 °F 33.0 °F 30.2 °F 70% 29.84 in 10.0 mi ENE 9.2 mph - N/A   Overcast
9:56 PM 39.2 °F 33.0 °F 30.2 °F 70% 29.83 in 10.0 mi NE 9.2 mph - N/A   Overcast
10:16 PM 39.2 °F 33.0 °F 30.2 °F 70% 29.83 in 10.0 mi NE 9.2 mph - N/A   Overcast
10:36 PM 39.2 °F 32.5 °F 30.2 °F 70% 29.83 in 10.0 mi NE 10.4 mph - N/A   Overcast
10:56 PM 39.2 °F 33.0 °F 30.2 °F 70% 29.83 in 10.0 mi NE 9.2 mph - N/A   Overcast
11:16 PM 41.0 °F 34.7 °F 30.2 °F 65% 29.83 in 10.0 mi NE 10.4 mph - N/A   Overcast
11:36 PM 41.0 °F 34.7 °F 30.2 °F 65% 29.83 in 10.0 mi NE 10.4 mph - N/A   Overcast
11:56 PM 41.0 °F 35.2 °F 30.2 °F 65% 29.82 in 10.0 mi ENE 9.2 mph - N/A   Overcast